Detroit Metropolitan Wayne County Airport
KDTW : now visible

Airfield :











YOU CAN JOIN US ON...

 
LOGIN :

Register | Disclaimer

   EN    FR    IT 

 









Legend :    VFR   Marginal VFR   IFR   Intensive IFR   Very Intensive IFR
Visi :
Ceiling :
>= 8 km
>= 3000ft
5 to 8 km
1000 to 3000 ft
1500m to 5 km
500 to 1000 ft
800 to 1500m
200 to 500 ft
< 800m
< 200 ft
Symbols :   Thunderstorms  Fog  Heavy snow  Heavy precipitations  Wind > 20 kt







- Airport Elevation : 645 ft
- IATA code : DTW


KDTW - Detroit Metropolitan Wayne County

CURRENT METAR :
  • 210353Z 33003KT 10SM SCT040 10/03 A3013 RMK AO2 SLP205 T01000033

EXPIRED METARs :
  • 210253Z 33005KT 10SM OVC035 11/04 A3012 RMK AO2 SLP200 T01060039 51013
  • 210153Z 34008KT 10SM OVC033 11/04 A3010 RMK AO2 SLP194 T01110039

TAF KDTW
Valid from the 21 at 03:00 until the 22 at 06:00 UTC


210312Z 2103/2206 33006KT P6SM BKN035
FM210400 34004KT P6SM SKC
FM211200 04006KT P6SM BKN250
FM211600 09010KT P6SM SCT100 OVC150
FM220000 07005KT P6SM OVC100
KZOB FIR / North America



MET'MAP, your aeronautical weather chart ! - Copyright ORBIFLY December 2007 - Disclaimer

ORBIFLY MET'MAP TEAM :

Programming & Development : Alexandra Zaïnal
Concept & Development : Baudouin d'Aumeries
Co-Development & Prog : Marc-Olivier Méhu
Technical & hardware support : Manuel Goepfert

Contact : metmap@orbifly.com




SOURCES & CREDITS :

   NOAA       Earth
Advisory